Weather Roundup
Issued by NWS Chicago, IL

Home | Current Version | Previous Version | Graphics & Text | Print | Product List | Glossary On
Versions: 1 2 3 4 5 6 7 8 9 10 11 12 13 14 15 16 17 18 19 20 21 22 23 24 25 26 27 28 29 30 31 32 33 34 35 36 37 38 39 40 41 42 43 44 45 46 47 48 49 50
000
NZUS59 KLOT 261308
HRRLOT

CHICAGO AREA WEATHER ROUNDUP
NATIONAL WEATHER SERVICE CHICAGO/ROMEOVILLE IL
800 AM CDT TUE MAY 26 2015

NOTE: "FAIR" INDICATES FEW OR NO CLOUDS BELOW 12,000 FEET WITH NO
SIGNIFICANT WEATHER AND/OR OBSTRUCTIONS TO VISIBILITY.

* THESE STATIONS ARE NOT UNDER NWS QUALITY CONTROL. THEY ALSO MAY NOT
  REPORT WEATHER SUCH AS PRECIPITATION OR FOG.

ILZ005-006-012>014-019>023-261400-
NORTHEAST ILLINOIS

CITY           SKY/WX    TMP DP  RH WIND       PRES   REMARKS
OHARE          CLOUDY    68  64  87 S12       29.93F
MIDWAY         CLOUDY    71  65  81 S12       29.94F
AURORA         CLOUDY    69  64  84 SE13      29.92F HAZE
LANSING*       CLOUDY    69  63  80 S12       29.96F
JOLIET*        CLOUDY    70  66  87 S8        29.93F
WAUKEGAN       CLOUDY    66  63  90 SE8       29.93S
DUPAGE AIRPORT CLOUDY    68  64  87 S10       29.93F
WHEELING       CLOUDY    69  64  84 S14       29.95S
KANKAKEE*      CLOUDY    70  66  88 SE9       29.95F
MORRIS*        CLOUDY    69  65  88 SE8       29.91F
LEWIS AIRPORT* CLOUDY    68  64  87 S9        29.94F
NORTHERLY IS     N/A     69  62  78 S7          N/A
$$

WIZ051-052-058>065-066-070>072-261400-
SOUTHEAST WISCONSIN

CITY           SKY/WX    TMP DP  RH WIND       PRES   REMARKS
MILWAUKEE      PTSUNNY   70  65  84 S15       29.91S
KENOSHA*       CLOUDY    70  66  87 S10       29.93R
RACINE*        PTSUNNY   65  60  84 SE13      29.94S
BURLINGTON     CLOUDY    68  64  88 S9        29.91F
WAUKESHA       CLOUDY    66  64  94 S8        29.92R FOG
WEST BEND      PTSUNNY   70  64  83 S8        29.90S
$$

INZ001>003-010>013-019-020-261400-
NORTHWEST INDIANA

CITY           SKY/WX    TMP DP  RH WIND       PRES   REMARKS
GARY*          PTSUNNY   72  66  83 S12       29.96F
MICHIGAN CITY* NOT AVBL
RENSSELAER*    NOT AVBL
VALPARAISO     PTSUNNY   70  65  84 S13G20    29.99F
$$

LMZ740>746-261400-
SOUTHERN LAKE MICHIGAN

STATION/POSITION TIME  SKY/WX   TEMP WIND        PRES    VSBY
                                AIR  DIR/SP/G
                 (UTC)          (F)  (DEG/KT/KT) (MB)    (MI)
HARRISON CRIB    1200            65  180/ 19/ 21   N/A
BURNHAM HARBOR   1300            69  150/ 10/ 15   N/A
CALUMET HARBOR   1200            68  170/ 11/ 15   N/A
BURNS HARBOR     1200            68  180/ 10/ 19 1015.2F
MICHIGAN CITY    1200            67  160/ 15/ 20   N/A
$$

ABBREVIATIONS USED IN REMARKS
   TC - TEMPERATURE IN CELSIUS
  WCI - WIND CHILL INDEX
   HX - HEAT INDEX
  VSB - VISIBILITY
$$



USA.gov is the U.S. government's official web portal to all federal, state and local government web resources and services.